Overview Statistics Trail Chart Weather Telemetry Raw packets
 

This is the latest recevied weather packets stored in our database for station/object K0SDS. If no packets are shown the sender has not sent any weather packets the latest 10 day(s).

<< 1 2 3 4 5 6 7 >>
Time Temp. Humidity Pressure Rain* Wind** Luminosity Snow
1788555186 36.11° C 46% 1011.7 hPa 0 mm - 467 W/m² -
1788554883 36.11° C 45% 1011.8 hPa 0 mm - 473 W/m² -
1788554579 36.11° C 46% 1011.9 hPa 0 mm - 475 W/m² -
1788554274 36.67° C 46% 1011.9 hPa 0 mm - 483 W/m² -
1788553971 36.11° C 46% 1012 hPa 0 mm - 497 W/m² -
1788553666 36.11° C 45% 1012.1 hPa 0 mm - 535 W/m² -
1788553363 36.67° C 44% 1012.2 hPa 0 mm - 584 W/m² -
1788553063 36.11° C 46% 1012.1 hPa 0 mm - 632 W/m² -
1788552757 36.11° C 45% 1012.1 hPa 0 mm - 614 W/m² -
1788552452 36.11° C 46% 1012 hPa 0 mm - 533 W/m² -
1788552147 36.11° C 46% 1012.2 hPa 0 mm - 524 W/m² -
1788551846 35.56° C 45% 1012 hPa 0 mm - 556 W/m² -
1788551545 36.11° C 46% 1012 hPa 0 mm - 551 W/m² -
1788551240 35.56° C 47% 1012.2 hPa 0 mm - 584 W/m² -
1788550939 35.56° C 48% 1012.3 hPa 0 mm - 587 W/m² -
1788550635 35.56° C 47% 1012.2 hPa 0 mm - 563 W/m² -
1788550331 35.56° C 48% 1012.3 hPa 0 mm - 576 W/m² -
1788550031 35.56° C 48% 1012.3 hPa 0 mm - 605 W/m² -
1788549720 36.11° C 46% 1012.5 hPa 0 mm - 619 W/m² -
1788549417 35.56° C 47% 1012.4 hPa 0 mm - 616 W/m² -
1788549113 35.56° C 48% 1012.7 hPa 0 mm - 582 W/m² -
1788548809 35° C 47% 1012.5 hPa 0 mm - 590 W/m² -
1788548505 35° C 50% 1012.8 hPa 0 mm - 639 W/m² -
1788548202 35° C 49% 1012.6 hPa 0 mm - 690 W/m² -
1788547907 35.56° C 48% 1012.8 hPa 0 mm - 691 W/m² -

* Rain latest hour (hover to see other rain measurements)
** Current wind speed in m/s (hover to see current wind gust speed)